Weather in Medvezhyegorsk

Russia / Republic of Karelia     62°54′53″N   34°28′23″E
temp.,
°C
wind,
m/s
gust,
m/s
humid.,
%
clouds,
%
prec.,
mm/h
press.,
hPa
HPBL,
m
9 march, tue
tue900:00−27n2310090 0.0 101973
03:00−28n239864 0.0 102150
06:00−29n23980 0.0 102243
09:00−27n24970 0.0 1023142
12:00−21nne24930 0.0 1025291
15:00−19nne24900 0.0 1026333
18:00−22n22940 0.0 102720
21:00−24nnw22920 0.0 102820
10 march, wed
wed1000:00−24nw22890 0.0 102920
03:00−24wnw23860 0.0 102960
06:00−23nw368314 0.0 1029112
09:00−19nw397949 0.0 1030241
12:00−14nw378072 0.0 1030268
15:00−11nw368148 0.0 1030293
18:00−14wnw23880 0.0 102923
21:00−18w22870 0.0 103020
11 march, thu
thu1100:00−19w23860 0.0 102943
03:00−20wsw23860 0.0 102944
06:00−21sw24901 0.0 102793
09:00−18ssw311880 0.0 1026311
12:00−12ssw511810 0.0 1024558
15:00−10ssw511770 0.0 1021743
18:00−11ssw412830 0.0 1018583
21:00−13ssw4129433 0.0 1017430
12 march, fri
fri1200:00−12ssw41295100 0.1 1015490
03:00−12ssw41195100 0.1 1013421
06:00−12s41295100 0.1 1012449
09:00−11s61394100 0.1 1010584
12:00−8s61393100 0.1 1009653
15:00−6s61391100 0.2 1008806
18:00−5ssw61491100 0.2 1006992
21:00−6s61492100 0.4 10061038
13 march, sat
sat1300:00−6s61392100 0.2 1005913
03:00−7s61393100 0.6 1004820
06:00−7s61394100 0.4 1002753
09:00−6s61393100 1.1 1001815
12:00−4s61194100 0.4 1000717
15:00−2s61295100 0.8 999802
18:00−1s61392100 0.3 998960
21:000ssw61297100 1.2 998931